Regional Weather Roundup
Issued by NWS Newport/Morehead, NC

Current Version | Previous Version | Text Only | Print | Product List | Glossary Off
Versions: 1 2 3 4 5 6 7 8 9 10 11 12 13 14 15 16 17 18 19 20 21 22 23 24 25 26 27 28 29 30 31 32 33 34 35 36 37 38 39 40 41 42 43 44 45 46 47 48 49 50
592 ASUS42 KMHX 281113 RWRMHX WEATHER ROUNDUP FOR EASTERN NORTH CAROLINA NATIONAL WEATHER SERVICE NEWPORT/MOREHEAD CITY NC 600 AM EST TUE FEB 28 2017 NOTE: "FAIR" INDICATES FEW OR NO CLOUDS BELOW 12,000 FEET WITH NO SIGNIFICANT WEATHER AND/OR OBSTRUCTIONS TO VISIBILITY NCZ015>017-031-032-045>047-102-103-281200- NORTH COAST CITY SKY/WX TMP DP RH WIND PRES REMARKS EDENTON CLEAR 52 49 91 CALM 30.32R ELIZABETH CITY CLEAR 52 51 97 CALM 30.32S KITTY HAWK NOT AVBL MANTEO PTCLDY 52 52 99 CALM 30.32S $$ NCZ045>047-081-094-103-104-281200- CENTRAL COAST CITY SKY/WX TMP DP RH WIND PRES REMARKS FRISCO PTCLDY 58 53 84 CALM 30.33F $$ NCZ095-097-098-100-101-281200- SOUTHERN COAST CITY SKY/WX TMP DP RH WIND PRES REMARKS BEAUFORT MOCLDY 59 58 96 E6 30.31F CEDAR ISLAND NOT AVBL JACKSONVILLE CLOUDY 56 56 100 CALM 30.30F PINEY ISLAND CLOUDY N/A N/A N/A SE5 30.32F WILMINGTON CLOUDY 56 56 100 NE5 30.30S $$ NCZ011>013-027>030-043-044-078>080-089-090>093-098-281200- COASTAL PLAIN CITY SKY/WX TMP DP RH WIND PRES REMARKS AHOSKIE N/A 47 46 93 CALM 30.31S CLINTON PTCLDY 53 51 94 CALM 30.30F ELIZABETHTOWN CLOUDY 52 52 100 CALM 30.30R GOLDSBORO CLEAR 54 54 100 SE3 30.28S GREENVILLE CLEAR 52 50 93 CALM 30.31S HAVELOCK LGT RAIN 56 54 93 E3 30.32F KENANSVILLE PTCLDY 50 48 93 CALM 30.30S KINSTON NOT AVBL NEW BERN CLOUDY 52 52 100 SE7 30.32F RICHLANDS CLOUDY 53 53 100 CALM 30.31S ROCKY MOUNT CLEAR 49 48 97 CALM 30.30S WASHINGTON CLEAR 53 51 91 CALM 30.31S WHITEVILLE CLOUDY 56 53 91 CALM 30.29R $$ AMZ130-135-150-152-154-156-158-170-250-252-270-ANZ085-086-088-633-658-670-281200- MARINE OBSERVATIONS STATION/POSITION TIME TEMP WIND PRES WAVE SWELL AIR SEA DIR/SP/G HT/PER HT/PER (UTC) (F) (DEG/KT/KT) (MB) (FT/S) (FT/S) CHESAPEAKE LIGHT NOT AVBL 64 E VA BEACH 1050 56 50 190/ 6/ 8 1026.8 4/ 6 3/ 6 DUCK 1048 53 49 150/ 7/ 8 1025.9 2 E DUCK 1100 51 N/A 3/ 5 OREGON INLET 1042 58 57 130/ 4/ 5 1026.4 13E OREGON INLT NOT AVBL HATTERAS CG 1048 61 63 CALM 1026.6 DIAMOND BUOY 1050 69 71 210/ 16/ 17 1027.0 4/ 8 2/ 8 CAPE LOOKOUT 1100 61 100/ 7/ 8 1026.4 BEAUFORT LAB 1048 61 60 110/ 4/ 5 1025.9 30 SE NEW RVR IN 1008 66 190/ 6/ 8 1026.4 30 SE NEW RVR IN 1043 65 N/A 5/ 5 27 SE WRIGHTSVLE 1008 66 62 90/ 12/ 16 1024.3 5 SE WRIGHTSVLE 1008 60 58 50/ 8/ 14 1026.4 225 S CAPE HAT 1050 69 70 140/ 16/ 19 1027.3 4/ 6 2/ 9 41 SE CHARLESTON 1050 71 68 190/ 14/ 17 1024.4 6/ 6 2/ 9 $$

USA.gov is the U.S. government's official web portal to all federal, state and local government web resources and services.